| time (UTC) | temp C | wind direction | speed KPH | gust KPH | rain 1hr cm | rain 24hr cm | rain mn cm | humidity % | barometer mb |
| 20260504081554 | 6 | 343 | 1.6 | 6.4 | 0.00 | 0.00 | 0.00 | 64 | 1011.4 |
| 20260504081047 | 6 | 314 | 1.6 | 4.8 | 0.00 | 0.00 | 0.00 | 63 | 1011.4 |
| 20260504080547 | 6 | 340 | 1.6 | 3.2 | 0.00 | 0.00 | 0.00 | 63 | 1011.3 |
| 20260504050548 | 2 | 0 | 0.0 | 1.6 | 0.00 | 0.00 | 0.00 | 79 | 1011.5 |
| 20260504045548 | 2 | 0 | 0.0 | 1.6 | 0.00 | 0.00 | 0.00 | 79 | 1011.5 |
| 20260504045048 | 2 | 0 | 0.0 | 1.6 | 0.00 | 0.00 | 0.00 | 80 | 1011.4 |
| 20260504044555 | 2 | 0 | 0.0 | 1.6 | 0.00 | 0.00 | 0.00 | 80 | 1011.3 |
| 20260504044049 | 2 | 343 | 0.0 | 0.0 | 0.00 | 0.00 | 0.00 | 80 | 1011.4 |
| 20260504043548 | 2 | 0 | 0.0 | 0.0 | 0.00 | 0.00 | 0.00 | 81 | 1011.2 |
| 20260504043059 | 2 | 0 | 0.0 | 0.0 | 0.00 | 0.00 | 0.00 | 82 | 1011.3 |
| 20260504042548 | 2 | 0 | 0.0 | 1.6 | 0.00 | 0.00 | 0.00 | 81 | 1011.4 |
| 20260504042049 | 2 | 0 | 0.0 | 1.6 | 0.00 | 0.00 | 0.00 | 81 | 1011.3 |
| 20260504041555 | 2 | 0 | 0.0 | 0.0 | 0.00 | 0.00 | 0.00 | 81 | 1011.1 |
| 20260504041048 | 2 | 0 | 0.0 | 0.0 | 0.00 | 0.00 | 0.00 | 80 | 1011.2 |
| 20260504040547 | 2 | 0 | 0.0 | 0.0 | 0.00 | 0.00 | 0.00 | 80 | 1011.2 |
| 20260504040128 | 2 | 0 | 0.0 | 0.0 | 0.00 | 0.00 | 0.00 | 80 | 1011.3 |
| 20260504035545 | 2 | 0 | 0.0 | 0.0 | 0.00 | 0.00 | 0.00 | 80 | 1011.2 |
| 20260504035048 | 2 | 0 | 0.0 | 0.0 | 0.00 | 0.00 | 0.00 | 80 | 1011.2 |
| 20260504034600 | 2 | 0 | 0.0 | 0.0 | 0.00 | 0.00 | 0.00 | 79 | 1011.2 |
| 20260504034048 | 2 | 0 | 0.0 | 0.0 | 0.00 | 0.00 | 0.00 | 79 | 1011.3 |
| 20260504033548 | 2 | 0 | 0.0 | 0.0 | 0.00 | 0.00 | 0.00 | 79 | 1011.2 |
| 20260504033050 | 2 | 0 | 0.0 | 0.0 | 0.00 | 0.00 | 0.00 | 79 | 1011.1 |
| 20260504032548 | 2 | 0 | 0.0 | 0.0 | 0.00 | 0.00 | 0.00 | 79 | 1011.2 |
| 20260504032048 | 3 | 0 | 0.0 | 0.0 | 0.00 | 0.00 | 0.00 | 79 | 1011.2 |
| 20260504031601 | 3 | 0 | 0.0 | 1.6 | 0.00 | 0.00 | 0.00 | 78 | 1011.2 |
| 20260504031051 | 3 | 0 | 0.0 | 1.6 | 0.00 | 0.00 | 0.00 | 79 | 1011.2 |
| 20260504030547 | 3 | 0 | 0.0 | 0.0 | 0.00 | 0.00 | 0.00 | 78 | 1011.0 |
| 20260504030053 | 2 | 0 | 0.0 | 0.0 | 0.00 | 0.00 | 0.00 | 78 | 1011.1 |
| 20260504025549 | 3 | 0 | 0.0 | 0.0 | 0.00 | 0.00 | 0.00 | 78 | 1011.2 |
| 20260504025047 | 2 | 0 | 0.0 | 0.0 | 0.00 | 0.00 | 0.00 | 78 | 1011.3 |
| 20260504024555 | 3 | 0 | 0.0 | 0.0 | 0.00 | 0.00 | 0.00 | 78 | 1011.3 |
| 20260504024049 | 2 | 0 | 0.0 | 0.0 | 0.00 | 0.00 | 0.00 | 78 | 1011.2 |
| 20260504023548 | 3 | 0 | 0.0 | 0.0 | 0.00 | 0.00 | 0.00 | 78 | 1011.3 |
| 20260504023049 | 3 | 0 | 0.0 | 0.0 | 0.00 | 0.00 | 0.00 | 78 | 1011.2 |
| 20260504022548 | 3 | 0 | 0.0 | 0.0 | 0.00 | 0.00 | 0.00 | 78 | 1011.2 |
| 20260504022048 | 3 | 0 | 0.0 | 0.0 | 0.00 | 0.00 | 0.00 | 78 | 1011.2 |
| 20260504021554 | 3 | 0 | 0.0 | 0.0 | 0.00 | 0.00 | 0.00 | 78 | 1011.2 |
| 20260504021045 | 3 | 0 | 0.0 | 0.0 | 0.00 | 0.00 | 0.00 | 78 | 1011.2 |
| 20260504020548 | 3 | 0 | 0.0 | 0.0 | 0.00 | 0.00 | 0.00 | 78 | 1011.1 |
| 20260504020107 | 3 | 0 | 0.0 | 0.0 | 0.00 | 0.00 | 0.00 | 77 | 1011.2 |
| 20260504015552 | 3 | 0 | 0.0 | 1.6 | 0.00 | 0.00 | 0.00 | 77 | 1011.1 |
| 20260504015049 | 3 | 0 | 0.0 | 1.6 | 0.00 | 0.00 | 0.00 | 77 | 1011.1 |
| 20260504014554 | 3 | 0 | 0.0 | 1.6 | 0.00 | 0.00 | 0.00 | 77 | 1011.1 |
| 20260504014048 | 3 | 0 | 0.0 | 1.6 | 0.00 | 0.00 | 0.00 | 77 | 1011.1 |
| 20260504013547 | 3 | 0 | 0.0 | 1.6 | 0.00 | 0.00 | 0.00 | 76 | 1011.0 |
| 20260504013051 | 3 | 0 | 0.0 | 0.0 | 0.00 | 0.00 | 0.00 | 76 | 1011.1 |
| 20260504012549 | 4 | 0 | 0.0 | 0.0 | 0.00 | 0.00 | 0.00 | 76 | 1011.0 |
| 20260504012046 | 4 | 0 | 0.0 | 0.0 | 0.00 | 0.00 | 0.00 | 75 | 1011.0 |
| 20260504011553 | 4 | 0 | 0.0 | 1.6 | 0.00 | 0.00 | 0.00 | 76 | 1010.9 |
| 20260504011048 | 5 | 0 | 0.0 | 1.6 | 0.00 | 0.00 | 0.00 | 75 | 1010.8 |
| 20260504010548 | 5 | 0 | 0.0 | 0.0 | 0.00 | 0.00 | 0.00 | 74 | 1010.8 |
| 20260504010056 | 5 | 0 | 0.0 | 0.0 | 0.00 | 0.00 | 0.00 | 73 | 1010.8 |
| 20260504005548 | 5 | 0 | 0.0 | 0.0 | 0.00 | 0.00 | 0.00 | 73 | 1010.7 |
| 20260504005052 | 5 | 0 | 0.0 | 1.6 | 0.00 | 0.00 | 0.00 | 71 | 1010.7 |
| 20260504004556 | 6 | 0 | 0.0 | 1.6 | 0.00 | 0.00 | 0.00 | 70 | 1010.8 |
| 20260504004045 | 6 | 0 | 0.0 | 1.6 | 0.00 | 0.00 | 0.00 | 70 | 1010.7 |
| 20260504003547 | 6 | 0 | 0.0 | 1.6 | 0.00 | 0.00 | 0.00 | 69 | 1010.7 |
| 20260504003053 | 6 | 0 | 0.0 | 0.0 | 0.00 | 0.00 | 0.00 | 68 | 1010.6 |
| 20260504002547 | 7 | 0 | 0.0 | 0.0 | 0.00 | 0.00 | 0.00 | 67 | 1010.6 |
| 20260504002047 | 7 | 0 | 0.0 | 0.0 | 0.00 | 0.00 | 0.00 | 66 | 1010.5 |
| 20260504001559 | 8 | 0 | 0.0 | 0.0 | 0.00 | 0.00 | 0.00 | 63 | 1010.4 |
| 20260504001051 | 8 | 0 | 0.0 | 0.0 | 0.00 | 0.00 | 0.00 | 62 | 1010.3 |
| 20260504000549 | 9 | 0 | 0.0 | 0.0 | 0.00 | 0.00 | 0.00 | 60 | 1010.3 |
| 20260504000059 | 10 | 0 | 0.0 | 0.0 | 0.00 | 0.00 | 0.00 | 60 | 1010.2 |
| 20260503235549 | 10 | 0 | 0.0 | 0.0 | 0.00 | 0.00 | 0.00 | 55 | 1010.1 |
| 20260503235051 | 10 | 0 | 0.0 | 0.0 | 0.00 | 0.00 | 0.00 | 51 | 1010.2 |
| 20260503234623 | 11 | 0 | 0.0 | 0.0 | 0.00 | 0.00 | 0.00 | 49 | 1010.2 |
| 20260503234053 | 11 | 0 | 0.0 | 1.6 | 0.00 | 0.00 | 0.00 | 48 | 1010.1 |
| 20260503233548 | 11 | 320 | 0.0 | 3.2 | 0.00 | 0.00 | 0.00 | 47 | 1010.0 |
| 20260503233053 | 11 | 0 | 0.0 | 3.2 | 0.00 | 0.00 | 0.00 | 46 | 1010.2 |
| 20260503232547 | 11 | 339 | 0.0 | 1.6 | 0.00 | 0.00 | 0.00 | 46 | 1010.1 |
| 20260503232047 | 12 | 0 | 0.0 | 4.8 | 0.00 | 0.00 | 0.00 | 47 | 1010.0 |
| 20260503231553 | 12 | 352 | 0.0 | 4.8 | 0.00 | 0.00 | 0.00 | 47 | 1010.0 |
| 20260503231048 | 12 | 331 | 0.0 | 4.8 | 0.00 | 0.00 | 0.00 | 44 | 1009.9 |
| 20260503230548 | 12 | 0 | 0.0 | 3.2 | 0.00 | 0.00 | 0.00 | 45 | 1010.0 |
| 20260503230052 | 12 | 20 | 1.6 | 4.8 | 0.00 | 0.00 | 0.00 | 45 | 1010.0 |
| 20260503225547 | 12 | 31 | 1.6 | 6.4 | 0.00 | 0.00 | 0.00 | 44 | 1009.9 |
| 20260503225048 | 12 | 18 | 3.2 | 6.4 | 0.00 | 0.00 | 0.00 | 45 | 1009.9 |
| 20260503224550 | 12 | 32 | 3.2 | 6.4 | 0.00 | 0.00 | 0.00 | 43 | 1009.9 |
| 20260503224048 | 12 | 115 | 3.2 | 6.4 | 0.00 | 0.00 | 0.00 | 44 | 1009.9 |
| 20260503223547 | 12 | 62 | 3.2 | 8.0 | 0.00 | 0.00 | 0.00 | 46 | 1009.8 |
| 20260503223050 | 12 | 97 | 3.2 | 8.0 | 0.00 | 0.00 | 0.00 | 45 | 1010.0 |
| 20260503222552 | 12 | 77 | 4.8 | 8.0 | 0.00 | 0.00 | 0.00 | 44 | 1010.0 |
| 20260503222048 | 12 | 89 | 4.8 | 8.0 | 0.00 | 0.00 | 0.00 | 45 | 1010.0 |
| 20260503221557 | 12 | 109 | 3.2 | 8.0 | 0.00 | 0.00 | 0.00 | 44 | 1009.9 |
| 20260503221048 | 12 | 31 | 4.8 | 8.0 | 0.00 | 0.00 | 0.00 | 43 | 1009.9 |
| 20260503220548 | 12 | 94 | 4.8 | 8.0 | 0.00 | 0.00 | 0.00 | 44 | 1010.0 |
| 20260503220059 | 12 | 42 | 1.6 | 9.7 | 0.00 | 0.00 | 0.00 | 44 | 1010.1 |
| 20260503215548 | 12 | 79 | 4.8 | 9.7 | 0.00 | 0.00 | 0.00 | 41 | 1009.9 |
| 20260503215049 | 13 | 93 | 4.8 | 9.7 | 0.00 | 0.00 | 0.00 | 41 | 1010.0 |
| 20260503214556 | 13 | 115 | 3.2 | 9.7 | 0.00 | 0.00 | 0.00 | 43 | 1009.9 |
| 20260503214053 | 13 | 60 | 4.8 | 11.3 | 0.00 | 0.00 | 0.00 | 42 | 1009.7 |
| 20260503213547 | 13 | 105 | 6.4 | 11.3 | 0.00 | 0.00 | 0.00 | 44 | 1009.7 |
| 20260503213053 | 13 | 75 | 6.4 | 11.3 | 0.00 | 0.00 | 0.00 | 42 | 1009.7 |
| 20260503212548 | 12 | 97 | 3.2 | 11.3 | 0.00 | 0.00 | 0.00 | 44 | 1009.6 |
| 20260503212048 | 12 | 252 | 3.2 | 11.3 | 0.00 | 0.00 | 0.00 | 43 | 1009.7 |
| 20260503211559 | 12 | 104 | 6.4 | 11.3 | 0.00 | 0.00 | 0.00 | 42 | 1009.8 |
| 20260503211049 | 12 | 106 | 4.8 | 11.3 | 0.00 | 0.00 | 0.00 | 44 | 1009.8 |
| 20260503210547 | 12 | 108 | 4.8 | 12.9 | 0.00 | 0.00 | 0.00 | 44 | 1009.8 |
| 20260503210054 | 12 | 82 | 3.2 | 12.9 | 0.00 | 0.00 | 0.00 | 44 | 1009.7 |
| 20260503205550 | 12 | 96 | 6.4 | 12.9 | 0.00 | 0.00 | 0.00 | 42 | 1009.8 |
| 20260503205050 | 12 | 80 | 3.2 | 9.7 | 0.00 | 0.00 | 0.00 | 43 | 1009.7 |
| 20260503204557 | 12 | 93 | 3.2 | 6.4 | 0.00 | 0.00 | 0.00 | 44 | 1009.7 |
| 20260503204047 | 12 | 80 | 3.2 | 6.4 | 0.00 | 0.00 | 0.00 | 42 | 1009.6 |
| 20260503203547 | 12 | 42 | 3.2 | 8.0 | 0.00 | 0.00 | 0.00 | 42 | 1009.6 |
| 20260503203057 | 12 | 35 | 3.2 | 8.0 | 0.00 | 0.00 | 0.00 | 43 | 1009.7 |
| 20260503202544 | 12 | 1 | 1.6 | 12.9 | 0.00 | 0.00 | 0.00 | 44 | 1009.6 |
| 20260503202049 | 12 | 89 | 3.2 | 12.9 | 0.00 | 0.00 | 0.00 | 42 | 1009.6 |
| 20260503201552 | 12 | 113 | 6.4 | 12.9 | 0.00 | 0.00 | 0.00 | 41 | 1009.6 |
| 20260503201047 | 12 | 21 | 3.2 | 12.9 | 0.00 | 0.00 | 0.00 | 44 | 1009.6 |
| 20260503200548 | 12 | 49 | 4.8 | 12.9 | 0.00 | 0.00 | 0.00 | 44 | 1009.6 |
| 20260503200057 | 12 | 84 | 4.8 | 11.3 | 0.00 | 0.00 | 0.00 | 41 | 1009.8 |
| 20260503195551 | 12 | 68 | 3.2 | 14.5 | 0.00 | 0.00 | 0.00 | 41 | 1009.9 |
| 20260503195049 | 12 | 91 | 6.4 | 14.5 | 0.00 | 0.00 | 0.00 | 40 | 1009.9 |
| 20260503194559 | 12 | 103 | 8.0 | 14.5 | 0.00 | 0.00 | 0.00 | 40 | 1009.9 |
| 20260503194047 | 12 | 91 | 6.4 | 12.9 | 0.00 | 0.00 | 0.00 | 38 | 1010.0 |
| 20260503193548 | 12 | 95 | 6.4 | 12.9 | 0.00 | 0.00 | 0.00 | 38 | 1010.0 |
| 20260503193121 | 13 | 84 | 4.8 | 12.9 | 0.00 | 0.00 | 0.00 | 39 | 1010.0 |
| 20260503192547 | 12 | 59 | 3.2 | 8.0 | 0.00 | 0.00 | 0.00 | 41 | 1009.9 |
| 20260503192047 | 12 | 27 | 1.6 | 8.0 | 0.00 | 0.00 | 0.00 | 42 | 1010.2 |
| 20260503191555 | 12 | 54 | 3.2 | 8.0 | 0.00 | 0.00 | 0.00 | 42 | 1010.5 |
| 20260503191047 | 12 | 117 | 1.6 | 11.3 | 0.00 | 0.00 | 0.00 | 40 | 1010.3 |
| 20260503190549 | 12 | 98 | 3.2 | 12.9 | 0.00 | 0.00 | 0.00 | 40 | 1010.2 |
| 20260503190056 | 12 | 55 | 8.0 | 12.9 | 0.00 | 0.00 | 0.00 | 37 | 1010.4 |
| 20260503185544 | 12 | 256 | 6.4 | 11.3 | 0.00 | 0.00 | 0.00 | 37 | 1010.4 |
| 20260503185051 | 13 | 105 | 6.4 | 9.7 | 0.00 | 0.00 | 0.00 | 37 | 1010.3 |
| 20260503184558 | 13 | 180 | 4.8 | 11.3 | 0.00 | 0.00 | 0.00 | 38 | 1010.5 |
| 20260503184048 | 13 | 31 | 6.4 | 14.5 | 0.00 | 0.00 | 0.00 | 39 | 1010.7 |
| 20260503183547 | 12 | 91 | 4.8 | 14.5 | 0.00 | 0.00 | 0.00 | 39 | 1010.8 |
| 20260503183056 | 13 | 70 | 4.8 | 12.9 | 0.00 | 0.00 | 0.00 | 41 | 1010.9 |
| 20260503182547 | 12 | 135 | 4.8 | 12.9 | 0.00 | 0.00 | 0.00 | 37 | 1010.8 |
| 20260503182047 | 12 | 103 | 3.2 | 12.9 | 0.00 | 0.00 | 0.00 | 41 | 1010.9 |
| 20260503181600 | 11 | 94 | 4.8 | 12.9 | 0.00 | 0.00 | 0.00 | 40 | 1010.9 |
| 20260503181044 | 11 | 111 | 4.8 | 12.9 | 0.00 | 0.00 | 0.00 | 43 | 1010.9 |
| 20260503180547 | 11 | 99 | 3.2 | 12.9 | 0.00 | 0.00 | 0.00 | 41 | 1011.0 |
| 20260503180105 | 11 | 84 | 3.2 | 12.9 | 0.00 | 0.00 | 0.00 | 47 | 1011.1 |
| 20260503175549 | 11 | 90 | 4.8 | 12.9 | 0.00 | 0.00 | 0.00 | 42 | 1011.0 |
| 20260503175048 | 11 | 134 | 6.4 | 12.9 | 0.00 | 0.00 | 0.00 | 49 | 1011.2 |
| 20260503174558 | 10 | 56 | 1.6 | 6.4 | 0.00 | 0.00 | 0.00 | 42 | 1011.2 |
| 20260503174048 | 10 | 72 | 3.2 | 9.7 | 0.00 | 0.00 | 0.00 | 46 | 1011.3 |
| 20260503173547 | 10 | 97 | 4.8 | 9.7 | 0.00 | 0.00 | 0.00 | 44 | 1011.4 |
| 20260503173050 | 10 | 111 | 3.2 | 19.3 | 0.00 | 0.00 | 0.00 | 45 | 1011.4 |
| 20260503172547 | 10 | 129 | 6.4 | 19.3 | 0.00 | 0.00 | 0.00 | 48 | 1011.6 |
| 20260503172048 | 10 | 124 | 3.2 | 8.0 | 0.00 | 0.00 | 0.00 | 47 | 1011.5 |
| 20260503171553 | 10 | 220 | 3.2 | 12.9 | 0.00 | 0.00 | 0.00 | 50 | 1011.7 |
| 20260503171047 | 9 | 94 | 4.8 | 12.9 | 0.00 | 0.00 | 0.00 | 45 | 1011.6 |
| 20260503170547 | 9 | 98 | 6.4 | 16.1 | 0.00 | 0.00 | 0.00 | 46 | 1011.8 |
| 20260503150548 | 7 | 215 | 4.8 | 12.9 | 0.00 | 0.00 | 0.00 | 51 | 1012.3 |
| 20260503140107 | 7 | 138 | 4.8 | 11.3 | 0.00 | 0.00 | 0.00 | 51 | 1012.4 |
| 20260503131046 | 5 | 57 | 6.4 | 17.7 | 0.00 | 0.00 | 0.00 | 60 | 1013.0 |
| 20260503130552 | 5 | 56 | 6.4 | 17.7 | 0.00 | 0.00 | 0.00 | 60 | 1012.9 |
| 20260503110550 | 1 | 0 | 0.0 | 3.2 | 0.00 | 0.00 | 0.00 | 78 | 1012.1 |
| 20260503110107 | 1 | 0 | 0.0 | 1.6 | 0.00 | 0.00 | 0.00 | 80 | 1012.1 |